www.pogodaiklimat.ru

Погода и климат >> Архив погоды >> Австралия >> Тасмания >> Остров Лорд-Хоу


ПОГОДА на Острове Лорд-Хоу

  • Прогноз погоды на Острове Лорд-Хоу
  • Монитор погоды на Острове Лорд-Хоу

АРХИВ ПОГОДЫ на Острове Лорд-Хоу

Время (UTC), дата Ветер
(напр.,м/с)
 
Видим.   Явления Облачность Т
(С)
Тd
(С)
f
(%)
Тe
(С)
Тes
(С)
Комфортность P
(гПа)
Po
(гПа)
Тmin
(С)
Tmax
(С)
R
(мм)
R24
(мм)
S
(см)
22 15.04 В 6 н/о {туман} 9/9 600 м
[]
+20.4 +16.2 77 +23 +23 комфорт 1022.4 1021.6
00 16.04 В 7 н/о н/о +21.3 +16.3 73 +25 +25 комфорт 1022.0 1021.2
01 16.04 В 9 н/о 10/10 600 м
[]
+21.2 +16.4 74 +25 +25 комфорт 1021.2 1020.4 +17.3
03 16.04 В 9 н/о н/о +21.4 +16.6 74 +25 +25 комфорт 1020.4 1019.6
04 16.04 В 9 н/о 9/9 600 м
[]
+21.2 +16.0 72 +25 +25 комфорт 1020.3 1019.5
06 16.04 В 7 н/о н/о +20.9 +15.9 73 +24 +24 комфорт 1020.7 1019.9
07 16.04 В 8 н/о 10/10 600 м
[]
+20.9 +16.1 74 +24 +24 комфорт 1021.3 1020.5
09 16.04 В 9 н/о н/о +20.6 +16.0 75 +23 +23 комфорт 1021.9 1021.1
10 16.04 В 9 н/о н/о +21.1 +16.1 73 +24 +24 комфорт 1022.8 1022.0
12 16.04 В 9 н/о н/о +21.3 +16.7 75 +25 +25 комфорт 1022.5 1021.7
13 16.04 В 8 н/о 10/10 600 м
[]
+20.7 +16.1 75 +23 +23 комфорт 1022.5 1021.7 +22.6
15 16.04 В 6 н/о н/о +18.7 +16.1 85 +19 +19 1022.4 1021.6
16 16.04 В 7 н/о {туман} 5/5 600 м
[]
+20.1 +16.9 82 +23 +23 комфорт 1021.7 1020.9
18 16.04 В 9 н/о н/о +20.9 +17.1 79 +24 +24 комфорт 1021.3 1020.5
19 16.04 В 9 н/о 3/3 300 м
[]
+20.8 +17.4 81 +24 +24 комфорт 1022.0 1021.2
21 16.04 В 9 н/о н/о +20.1 +16.1 78 +22 +22 комфорт 1022.9 1022.1
22 16.04 В 7 н/о н/о +22.4 +16.2 68 +27 +27 душно 1023.5 1022.7
00 17.04 В 8 н/о н/о +19.6 +16.8 84 +21 +21 комфорт 1024.0 1023.2
01 17.04 ЮВ 3 н/о 10/10 600 м
[]
+19.3 +16.9 86 +21 +21 комфорт 1023.2 1022.4 +18.0
03 17.04 В 8 н/о н/о +21.0 +18.2 84 +25 +25 комфорт 1022.2 1021.4
04 17.04 В 8 н/о 8/8 600 м
[]
+22.0 +17.6 76 +27 +27 душно 1022.1 1021.3
06 17.04 В 8 н/о н/о +20.3 +17.3 83 +23 +23 комфорт 1022.5 1021.7
07 17.04 В 7 9000 м {туман} 10/0
[]
+20.5 +17.1 81 +23 +23 комфорт 1022.9 1022.1
09 17.04 В 8 н/о н/о +21.5 +18.1 81 +26 +26 душно 1023.7 1022.9
10 17.04 В 10 н/о {туман} 10/10 300 м
[]
+21.1 +17.5 80 +25 +25 комфорт 1024.5 1023.7
12 17.04 В 10 н/о н/о +21.2 +17.2 78 +25 +25 комфорт 1024.7 1023.9
13 17.04 СВ 11 н/о 5/5 300 м
[]
+20.6 +17.6 83 +23 +23 комфорт 1024.6 1023.8 +23.3
15 17.04 В 7 н/о н/о +21.1 +16.9 77 +25 +25 комфорт 1023.5 1022.7
16 17.04 В 6 9000 м 3/0
[]
+20.2 +17.4 84 +23 +23 комфорт 1022.9 1022.1
18 17.04 В 7 н/о н/о +22.1 +19.1 83 +28 +28 душно 1022.4 1021.6
19 17.04 В 10 8000 м {туман} 9/0 2000 м
[]
+21.0 +18.2 84 +25 +25 комфорт 1023.3 1022.5
21 17.04 СВ 12 н/о н/о +19.6 +17.7 89 +21 +21 комфорт 1024.5 1023.7
22 17.04 В 8 8000 м 8/8 300 м
[]
+21.4 +19.0 86 +26 +26 душно 1025.1 1024.3
01 18.04 В 9 9000 м 9/9 600 м
[]
+22.5 +18.9 80 +28 +28 душно 1024.6 1023.8 +18.3
03 18.04 В 8 н/о н/о +22.8 +18.3 76 +28 +28 душно 1023.4 1022.6
04 18.04 В 10 н/о 10/10 600 м
[]
+21.6 +17.6 78 +26 +26 душно 1023.5 1022.7
06 18.04 В 9 н/о н/о +22.7 +17.4 72 +28 +28 душно 1023.4 1022.6
07 18.04 В 9 8000 м 1/1 600 м
[]
+22.5 +18.1 76 +28 +28 душно 1024.1 1023.3
09 18.04 В 8 н/о н/о +22.4 +18.0 76 +27 +27 душно 1025.2 1024.4
10 18.04 В 8 8000 м 1/1 600 м
[]
+22.4 +18.2 77 +28 +28 душно 1025.8 1025.0
12 18.04 В 9 н/о н/о +22.4 +18.8 80 +28 +28 душно 1026.0 1025.2
13 18.04 В 9 9000 м 3/3 600 м
[]
+22.4 +18.2 77 +28 +28 душно 1026.1 1025.3 +23.8
15 18.04 В 8 н/о н/о +22.2 +18.4 79 +27 +27 душно 1025.9 1025.1
16 18.04 В 8 9000 м {туман} 10/10 600 м
[]
+21.8 +18.8 83 +27 +27 душно 1025.0 1024.2
18 18.04 В 7 н/о н/о +21.4 +18.6 84 +26 +26 душно 1025.0 1024.2
19 18.04 В 8 8000 м {туман} 1/1 1500 м
[]
+21.9 +18.3 80 +27 +27 душно 1025.5 1024.7
21 18.04 В 10 н/о н/о +22.7 +18.7 78 +28 +28 душно 1026.4 1025.6
22 18.04 В 9 9000 м {туман} 1/1 600 м
[]
+23.4 +18.7 75 +30 +30 очень
душно
1027.1 1026.3
00 19.04 В 9 н/о н/о +23.6 +18.7 74 +28 +28 душно 1027.4 1026.5
01 19.04 В 8 н/о 10/10 1500 м
[]
+24.2 +19.3 74 +29 +29 душно 1026.4 1025.6 +20.4
03 19.04 В 8 н/о н/о +23.9 +18.5 72 +28 +28 душно 1025.3 1024.5
04 19.04 В 8 8000 м н/о +23.4 +17.6 70 +29 +29 душно 1025.3 1024.5
06 19.04 В 8 н/о н/о +22.6 +17.5 73 +28 +28 душно 1025.4 1024.6
07 19.04 В 7 8000 м 1/1 600 м
[]
+22.1 +17.2 74 +27 +27 душно 1025.9 1025.1
09 19.04 В 7 н/о н/о +22.0 +16.9 73 +26 +26 душно 1026.6 1025.8
10 19.04 В 7 8000 м 3/3 600 м
[]
+21.9 +16.8 73 +26 +26 душно 1026.9 1026.1
12 19.04 В 7 н/о н/о +22.1 +17.5 75 +27 +27 душно 1026.7 1025.9
13 19.04 В 6 н/о н/о +21.7 +17.1 75 +26 +26 душно 1026.2 1025.4 +24.8
15 19.04 В 6 н/о н/о +21.9 +17.3 75 +26 +26 душно 1025.6 1024.8
16 19.04 В 6 н/о 1/1 600 м
[]
+21.6 +17.2 76 +26 +26 душно 1024.8 1024.0
18 19.04 В 6 н/о н/о +21.7 +17.3 76 +26 +26 душно 1024.9 1024.1
19 19.04 ЮВ 5 20 км осадки на расстоянии 5/5 600 м
[Cu med, cong Ac und]
+21.3 +16.9 76 +25 +25 комфорт 1025.1 1024.3
21 19.04 В 6 н/о н/о +22.1 +17.5 75 +27 +27 душно 1025.8 1025.0
22 19.04 В 7 25 км 5/4 600 м
[Cu Sc Ac trans]
+22.9 +18.0 74 +28 +29 душно 1026.4 1025.6
00 20.04 В 7 н/о н/о +24.2 +18.6 71 +29 +29 душно 1026.2 1025.4
01 20.04 В 7 н/о н/о +24.6 +18.3 68 +29 +29 душно 1025.6 1024.8 +21.1
03 20.04 В 6 н/о н/о +24.1 +17.8 68 +28 +28 душно 1024.6 1023.8
04 20.04 В 6 25 км 4/4 600 м
[Cu hum]
+23.9 +17.6 68 +28 +29 душно 1024.4 1023.6
06 20.04 В 7 н/о н/о +22.8 +16.8 69 +28 +28 душно 1024.4 1023.6
07 20.04 В 6 9000 м 5/5 1000 м
[]
+22.0 +16.7 72 +26 +26 душно 1024.9 1024.1
09 20.04 В 6 н/о н/о +21.9 +16.4 71 +26 +26 душно 1025.6 1024.8
10 20.04 В 6 н/о 1/1 600 м
[]
+21.9 +16.6 72 +26 +26 душно 1026.0 1025.2
12 20.04 В 6 н/о н/о +21.7 +16.2 71 +25 +25 комфорт 1025.5 1024.7
13 20.04 В 7 н/о 4/4 1000 м
[]
+21.8 +16.3 71 +26 +26 душно 1025.1 1024.3 +24.7
15 20.04 В 6 н/о н/о +21.5 +15.6 69 +25 +25 комфорт 1024.6 1023.8
16 20.04 В 8 н/о 5/5 600 м
[]
+21.4 +16.6 74 +25 +25 комфорт 1023.9 1023.1
18 20.04 В 7 н/о н/о +21.4 +15.9 71 +25 +25 комфорт 1023.9 1023.1
19 20.04 В 7 20 км 3/3 1000 м
[Cu hum Ci fib]
+21.2 +15.3 69 +24 +24 комфорт 1024.4 1023.6
21 20.04 В 7 н/о н/о +22.2 +14.6 62 +26 +26 душно 1025.0 1024.2
22 20.04 В 8 н/о 3/3 600 м
[]
+23.1 +16.2 65 +28 +28 душно 1025.6 1024.8
00 21.04 В 8 н/о н/о +23.4 +16.2 64 +28 +28 душно 1025.3 1024.5
01 21.04 В 7 н/о н/о +23.6 +15.9 62 +27 +27 жарко 1024.3 1023.5 +20.7
03 21.04 В 7 н/о н/о +23.4 +15.2 60 +28 +28 душно 1023.6 1022.8
04 21.04 В 8 н/о н/о +23.1 +14.4 58 +27 +27 душно 1023.1 1022.3
06 21.04 В 7 н/о н/о +22.4 +16.2 68 +27 +27 душно 1023.2 1022.4
07 21.04 В 7 н/о 3/3 600 м
[]
+21.7 +16.4 72 +26 +26 душно 1023.3 1022.5
09 21.04 В 6 н/о н/о +21.4 +16.1 72 +25 +25 комфорт 1024.3 1023.5
10 21.04 В 6 н/о 8/8 600 м
[]
+21.7 +17.1 75 +26 +26 душно 1024.0 1023.2
12 21.04 В 6 н/о н/о +21.5 +17.1 76 +25 +25 комфорт 1024.0 1023.2
13 21.04 В 6 н/о н/о +21.4 +17.0 76 +25 +25 комфорт 1024.0 1023.2 +23.9
15 21.04 В 5 н/о н/о +21.4 +17.0 76 +25 +25 комфорт 1023.7 1022.9
16 21.04 В 4 н/о 10/10 600 м
[]
+21.4 +17.2 77 +25 +25 комфорт 1022.9 1022.1
18 21.04 ЮВ 4 н/о н/о +20.9 +16.3 75 +25 +25 комфорт 1022.7 1021.9
19 21.04 ЮВ 3 н/о 1/1 600 м
[]
+20.4 +15.6 74 +24 +24 комфорт 1023.3 1022.5
21 21.04 В 6 н/о н/о +22.1 +16.4 70 +26 +26 душно 1024.1 1023.3
22 21.04 В 7 н/о н/о +22.9 +16.0 65 +27 +27 душно 1024.5 1023.7
00 22.04 В 7 н/о н/о +23.3 +16.1 64 +28 +28 душно 1024.4 1023.6
01 22.04 В 6 н/о 1/1 600 м
[]
+23.7 +16.7 65 +27 +32 жарко 1023.7 1022.9 +20.3
03 22.04 В 5 н/о н/о +23.0 +17.5 71 +28 +28 душно 1023.2 1022.4
04 22.04 В 6 н/о {туман} 10/10 600 м
[]
+22.3 +17.2 73 +27 +27 душно 1023.2 1022.4
06 22.04 В 7 н/о н/о +22.1 +17.5 75 +27 +27 душно 1023.3 1022.5
07 22.04 В 6 н/о 10/10 600 м
[]
+21.4 +16.4 73 +25 +25 комфорт 1024.1 1023.3
09 22.04 В 5 н/о н/о +21.1 +16.1 73 +24 +24 комфорт 1024.7 1023.9
10 22.04 В 4 н/о 6/6 1000 м
[]
+21.0 +15.8 72 +25 +25 комфорт 1025.3 1024.5
12 22.04 ЮВ 3 н/о н/о +20.5 +14.6 69 +23 +23 комфорт 1025.4 1024.6
13 22.04 ЮВ 3 н/о н/о +20.6 +14.3 67 +24 +24 комфорт 1025.6 1024.8 +24.3
15 22.04 ЮВ 3 н/о н/о +20.6 +14.5 68 +24 +24 комфорт 1025.2 1024.4
18 22.04 В 6 н/о н/о +21.0 +14.4 66 +24 +24 комфорт 1024.7 1023.9
21 22.04 В 7 н/о н/о +21.1 +13.0 60 +23 +23 комфорт 1026.1 1025.3

 

Местоположение метеостанции Остров Лорд-Хоу (Тасмания, Австралия): широта -31.53 долгота 159.06 высота над уровнем моря 7 м.

В архиве по умолчанию представлена погода на Острове Лорд-Хоу за последнюю неделю. Архивные данные за месяц целиком и за предыдущие месяцы, начиная с января 2011 года, Вы можете получить, выбрав интересующий диапазон дат из раскрывающегося списка и нажав кнопку "Ввод!".


*Определитесь, кто Вы:
робот инопланетянин человек

Внимание! Время в таблицах - всемирное. Для получения местного времени необходимо прибавить поправку, которая равна 10 ч.

Смотрите также архив погоды в соседних городах и на ближайших метеорологических станциях:

Погода на Острове Лорд-Хау (Новый Южный Уэльс, Австралия) (1 км)
Погода в Кофс-Харборе (Новый Южный Уэльс, Австралия) (584 км)
Погода в Порт Маккуори аэропорту (Новый Южный Уэльс, Австралия) (589 км)
Погода в Ямбе (Новый Южный Уэльс, Австралия) (593 км)
Погода в Кемпси (Новый Южный Уэльс, Австралия) (600 км)
Погода в Эванс Хед (Новый Южный Уэльс, Австралия) (603 км)
Погода в Баллине (Новый Южный Уэльс, Австралия) (609 км)
Погода в Графтон аэропорту (Новый Южный Уэльс, Австралия) (610 км)
Погода на Мысе Байрон (Новый Южный Уэльс, Австралия) (614 км)
Погода в Тари (Новый Южный Уэльс, Австралия) (620 км)

Пояснения к столбцам:

Ветер - указаны скорость ветра в м/с - средняя за 10 мин, порывы в срок и между сроками (в фигурных скобках) и направление, откуда дует ветер: С - северный, СВ - северо-восточный, В - восточный, ЮВ - юго-восточный, Ю - южный, ЮЗ - юго-западный, З - западный, СЗ - северо-западный.
Видимость - горизонтальная дальность видимости в метрах или километрах. При видимости от 1 до 10 км при отсутствии осадков обычно наблюдается дымка, при ухудшении видимости до 1 км и менее - туман. В сухую погоду видимость может ухудшаться дымом, пылью или мглою.
Явления - указаны атмосферные явления, наблюдавшиеся в срок или в последний час перед сроком; фигурными скобками обозначены явления, наблюдавшиеся между сроками (за 1-3 часа до срока); квадратными скобками обозначены град или гололедные отложения с указанием их диаметра в мм.
Облачность - указаны через наклонную черту общая и нижняя облачность в баллах и высота нижней границы облаков в метрах; квадратными скобками обозначены формы облаков: Ci - перистые, Cs - перисто-слоистые, Cc - перисто-кучевые, Ac - высококучевые, As - высокослоистые, Sc - слоисто-кучевые, Ns - слоисто-дождевые, Cu - кучевые, Cb - кучево-дождевые. Подробнее классификацию облаков см. в Атласе облаков (PDF).
T - Температура воздуха - температура, измеренная на высоте 2 м над землей.
Td - Температура точки росы - температура, при понижении до которой содержащийся в воздухе водяной пар достигнет насыщения.
f - Относительная влажность воздуха - влажноcть воздуха, измеренная на высоте 2 м над землей.
Te - Эффективная температура - температура, которую ощущает одетый по сезону человек в тени. Характеристика душности погоды. При расчете учитывается влияние влажности воздуха и скорости ветра на теплоощущения человека.
Tes - Эффективная температура на солнце - температура, которую ощущает человек, с поправкой на солнечный нагрев. Характеристика знойности погоды. Зависит от высоты солнца над горизонтом, облачности и скорости ветра. Ночью, в пасмурную погоду, а также при ветре 12 м/с и более поправка равна нулю.
P - Атмосферное давление - приведенное к уровню моря атмосферное давление.
Po - Атмосферное давление - измеренное на уровне метеостанции атмосферное давление.
Tmin - Минимальная температура - минимум температуры воздуха на высоте 2 м над землей.
Tmax - Максимальная температура - максимум температуры воздуха на высоте 2 м над землей.
R - Количество осадков - Количество выпавших осадков за период времени, мм. При наведении курсора мыши на число - период времени, за который выпало указанное количество осадков.
R24 - Количество осадков - Количество выпавших осадков за 24 часа, мм.
S - Снежный покров - Высота снежного покрова, см. При наведении курсора мыши на число - состояние снежного покрова и степень покрытия местности в баллах.